Location: *
(57.8420°S, 159.8600°W)
Time: 05:14:20
(UTC+00:00)

METEOR-M - Pass Details

Date: 18 May 2021
Orbit: 816 x 819 km, 98.5° (Epoch: 20 June)

Event Time Altitude Azimuth Distance (km) Brightness Sun altitude
Rises 03:50:01 0° 164° (SSE) 3,392 7.0 -10.6°
Reaches altitude 10° 03:52:23 10° 166° (SSE) 2,453 6.3 -10.9°
Maximum altitude 03:57:48 71° 248° (WSW) 879 4.5 -11.6°
Drops below altitude 10° 04:03:10 10° 331° (NNW) 2,429 7.3 -12.3°
Sets 04:05:30 0° 333° (NNW) 3,355 8.0 -12.6°
